User: anonymous   Login
Location: Unspecified
(0.0000°N, 0.0000°E)
Time: 19:59:17
(UTC+00:00)
Language:

USA 157 - Orbit

View from above orbital plane
View from above orbital plane
View from above satellite
View from above satellite

Ground track
Ground track

The orbit data is extracted from the following two-line orbital elements,

1 26715U 01009A   19083.52411819 -.00000382  00000-0  00000+0 0  9996
2 26715   8.9157  32.7349 0002376 337.2192 111.4146  1.00275656  5157
Epoch (UTC): 24 March 2019 12:34:43
Eccentricity: 0.0002376
inclination: 8.9157°
perigee height: 35775 km
apogee height: 35795 km
right ascension of ascending node: 32.7349°
argument of perigee: 337.2192°
revolutions per day: 1.00275656
mean anomaly at epoch: 111.4146°
orbit number at epoch: 515

The dashed part of the orbit path shows where the satellite is in the earth's shadow,  

DLR